Location: Hermaringen
(48.5952°N, 10.2585°E)
Time: 07:22:08
(UTC+00:00)

SL-12 R/B(2) - Pass Details

Date: 18 November 2025
Orbit: 1173 x 2175 km, 63.4° (Epoch: 13 December)

Event Time Altitude Azimuth Distance (km) Brightness Sun altitude
Rises 17:16:17 0° 222° (SW) 4,196 7.7 -16.4°
Reaches altitude 10° 17:18:52 10° 223° (SW) 3,307 7.1 -16.8°
Maximum altitude 17:26:55 84° 312° (NW) 1,491 4.4 -18.1°
Enters shadow 17:35:46 14° 41° (NE) 3,671 6.0 -19.6°
